ASTRO-H (HITOMI)        
1 41337U 16012A   19260.45270022  .00000218  00000-0  10759-4 0  9995
2 41337  31.0061 306.9461 0012479 243.9388 115.9962 14.98605009196360
CHUBUSAT-2              
1 41338U 16012B   19260.44857521  .00000294  00000-0  16098-4 0  9996
2 41338  31.0031 287.9908 0013816 282.3545  77.5544 15.00178928196559
CHUBUSAT-3              
1 41339U 16012C   19260.47403005  .00000266  00000-0  13844-4 0  9999
2 41339  31.0115 285.8039 0013799 290.9128  69.0027 15.00352196196550
HORYU-4                 
1 41340U 16012D   19260.39371572  .00000425  00000-0  25537-4 0  9994
2 41340  31.0047 276.8481 0013961 308.9594  50.9798 15.01309645196652
H-2A R/B                
1 41341U 16012E   19259.26821486  .00000407  00000-0  20824-4 0  9997
2 41341  30.6252 204.4879 0018013 141.3898 218.8023 15.04886137196939
ASTRO-H (HITOMI) DEB    
1 41439U 16012H   19258.37013234  .00001863  00000-0  11672-3 0  9997
2 41439  31.0047 256.9339 0011395 307.2982  52.6616 15.06566694190706
ASTRO-H (HITOMI) DEB    
1 41440U 16012J   19259.88522788  .00013243  00000-0  48906-3 0  9990
2 41440  30.9866 119.3708 0009160 164.7526 195.3394 15.26438537192519
ASTRO-H (HITOMI) DEB    
1 41441U 16012K   19259.65787090  .00030985  00000-0  68623-3 0  9995
2 41441  30.8970 359.0793 0011378 159.2628 200.8480 15.42466119193624
ASTRO-H (HITOMI) DEB    
1 41442U 16012L   19259.48221936  .00000567  00000-0  36248-4 0  9991
2 41442  31.0094 288.2476 0013200 259.8660 100.0487 15.01389641196478
ASTRO-H (HITOMI) DEB    
1 41444U 16012N   19258.23631719  .00004072  00000-0  22878-3 0  9997
2 41444  31.0007 229.6958 0008189  12.6992 347.3852 15.11522719190978
ASTRO-H (HITOMI) DEB    
1 41445U 16012P   19258.16015542  .00005192  00000-0  27665-3 0  9993
2 41445  31.0027 214.1826 0008610  28.3883 331.7225 15.13584921191108
ASTRO-H (HITOMI) DEB    
1 41447U 16012R   19258.31324969  .00004009  00000-0  23276-3 0  9998
2 41447  30.9970 237.1908 0007332  13.3126 346.7704 15.10348682190909
ASTRO H DEB             
1 42674U 16012S   19258.22932153  .00004602  00000-0  25368-3 0  9994
2 42674  31.0029 221.8329 0006095  18.4026 341.6832 15.12312966181056
ASTRO H DEB             
1 42675U 16012T   19258.08099851  .00003471  00000-0  19878-3 0  9990
2 42675  31.0109 239.0006 0005070 354.3679   5.6902 15.10721271144793